Location: Narragansett
(41.4496°N, 71.4488°W)
Time: 06:17:42
(UTC+00:00)

X-37B - Pass Details

Date: 28 September 2021
Orbit: 342 x 346 km, 45.0° (Epoch: 22 October)

Event Time Altitude Azimuth Distance (km) Brightness Sun altitude
Exits shadow 08:36:44 25° 49° (NE) 739 2.6 -23.5°
Drops below altitude 10° 08:38:15 10° 65° (ENE) 1,295 4.3 -23.2°
Sets 08:40:19 0° 73° (ENE) 2,137 5.8 -22.9°
